Location: Altenburg
(37.6309°N, 89.5854°W)
Time: 13:44:16
(UTC+00:00)

Daily predictions for brighter satellites

Satellite Brightness Start Highest point End
(mag) Time Altitude Azimuth Time Altitude Azimuth Time Altitude Azimuth
Cosmos 2369 Rocket 3.2 12:02:24 10° WSW 12:06:45 23° NW 12:11:09 10° N
Cosmos 1408 Rocket 3.6 12:03:32 10° SSW 12:07:46 56° W 12:12:00 10° N
FengYun 1-2 T 4.3 12:08:22 10° NNE 12:13:53 84° ESE 12:19:22 10° SSW
USA 215 3.3 12:08:17 10° SE 12:14:49 83° SW 12:21:23 10° NW
BREEZE-M DEB 3.3 12:11:59 10° WSW 12:14:56 68° NNW 12:23:26 10° NE
Cosmos 1743 Rocket 3.6 12:10:53 10° S 12:15:18 87° E 12:19:42 10° N
Cosmos 2279 Rocket 4.4 12:10:18 10° NNW 12:16:00 39° W 12:21:40 10° SSW
H-2A R/B 3.6 12:14:25 10° NNE 12:19:00 38° E 12:23:35 10° SSE
Cosmos 1602 4.5 12:16:02 10° S 12:19:45 56° E 12:23:29 10° NNE
Nadezhda 4 Rocket 4.0 12:15:39 10° SSW 12:21:42 62° W 12:27:51 10° N
AQUARIUS 4.3 12:20:05 10° NNE 12:24:36 83° ESE 12:29:05 10° S
DMSP B5D2-2 4.2 12:20:55 10° S 12:26:01 54° W 12:31:08 10° NNW
Cosmos 783 Rocket 4.5 12:21:57 10° NNW 12:27:09 72° WSW 12:32:18 10° S
Cosmos 1515 Rocket 3.8 12:24:09 10° NNW 12:28:20 47° W 12:32:29 10° SSW
USA 32 4.2 12:26:16 10° N 12:31:32 84° E 12:36:46 10° S
Meteor 1-20 Rocket 4.3 12:26:05 10° S 12:31:36 89° E 12:37:17 10° N
SL-8 R/B 4.2 12:26:57 10° NW 12:31:40 55° NNE 12:36:20 10° ESE
BREEZE-M DEB (TANK) 4.4 12:20:54 10° NW 12:33:51 39° WSW 12:38:12 10° S
Cosmos 2221 3.5 22:59:45 10° SSW 23:03:54 51° W 23:08:05 10° N
CZ-4B R/B 4.4 23:01:13 10° ESE 23:05:00 20° ENE 23:08:46 10° NNE
Cosmos 1842 Rocket 4.3 23:00:43 10° SSW 23:05:06 60° W 23:09:32 10° N
Sich 1 4.1 23:02:27 10° NNE 23:05:55 23° ENE 23:09:23 10° SE
Cosmos 1805 Rocket 4.3 23:02:09 10° NNE 23:06:00 30° ENE 23:09:49 10° SE
NOSS 3-1 (A) 4.3 22:59:24 10° NNW 23:06:59 55° NE 23:15:40 10° SE
NOSS 3-1 (C) 4.2 22:59:48 10° NNW 23:07:38 84° ENE 23:16:38 10° SSE
GPS 2-04 Rocket1 3.1 23:03:57 10° WSW 23:08:02 66° S 23:12:06 10° E
Cosmos 44 3.2 23:06:13 10° NNW 23:10:54 85° WSW 23:15:18 10° SSE
Cosmos 468 Rocket 4.1 23:05:58 10° SSW 23:11:05 80° WNW 23:16:18 10° NNE
CZ-2C R/B 3.6 23:07:52 10° NE 23:12:01 24° E 23:16:08 10° SSE
CZ-2C R/B 3.1 23:07:30 10° S 23:12:30 79° WSW 23:17:19 10° NNW
Meteor 1-20 Rocket 4.4 23:07:51 10° N 23:13:38 60° E 23:19:23 10° SSE
Cosmos 1898 Rocket 3.6 23:13:04 10° N 23:18:12 52° ENE 23:23:16 10° SE
Cosmos 2084 3.7 23:14:57 10° NNW 23:19:10 49° NE 23:23:33 10° SE
Nadezhda 4 Rocket 4.2 23:12:54 10° N 23:19:15 83° W 23:25:34 10° S
Cosmos 1666 4.4 23:18:19 10° NE 23:20:10 13° ENE 23:22:01 10° ESE
AQUARIUS 4.2 23:16:48 10° SSE 23:21:11 57° ENE 23:25:35 10° N
CZ-4C R/B 3.8 23:21:43 10° NNW 23:27:49 27° NE 23:34:39 10° E
Cosmos 1939 Rocket 3.0 23:25:31 10° S 23:29:39 83° W 23:33:45 10° NNW
Cosmos 1812 3.4 23:29:09 10° SSE 23:32:38 34° E 23:36:08 10° NNE
Cosmos 1092 Rocket 4.0 23:28:01 10° N 23:34:22 75° E 23:40:41 10° SSE
H-2A R/B 2.3 23:29:38 10° SE 23:34:37 47° ENE 23:39:28 10° N
Cosmos 1428 Rocket 4.4 23:32:23 10° N 23:38:30 70° E 23:44:39 10° SSE
USA 276 2.1 23:35:50 10° NW 23:38:56 57° NE 23:41:29 14° ESE
COSMO-SKYMED 1 3.0 23:35:17 10° NNE 23:39:23 40° E 23:43:28 10° S
BREEZE-M DEB (TANK) 4.0 23:38:30 10° NW 23:46:06 67° SW 23:49:01 10° SE
Cosmos 921 Rocket 4.2 23:43:46 10° SE 23:46:52 20° E 23:47:24 20° E
Cosmos 2142 Rocket 4.5 23:42:28 10° S 23:48:28 60° E 23:54:32 10° NNE
Cosmos 1633 Rocket 3.7 23:45:51 10° NNE 23:49:46 31° ENE 23:53:40 10° SE
Cosmos 841 Rocket 3.6 23:46:03 10° SSW 23:51:12 76° WNW 23:56:22 10° NNE
Cosmos 1697 Rocket 2.7 23:47:06 10° NNW 23:52:45 89° WSW 23:58:21 10° SSE
Cosmos 1602 4.0 23:49:23 10° NNW 23:53:13 68° W 23:57:04 10° S
Cosmos 1782 3.3 23:51:45 10° SSW 23:55:42 61° W 23:59:40 10° N
